Content
SEND FEEDBACK

Daily
Averages
Monthly
Summary
Canada

LONDON, ONTARIO


Home > North America > Canada > Ontario
Elevation: 912 feet     Latitude: 43 02N     Longitude: 081 09W

WEATHER
 
SELECT A DAY
Number of Records: 194,661;   Date Range: 1/1/95 - 10/23/14
 
SHARE

PRINT THIS DATA

[ ← Previous Day ]
WEATHER ALMANAC - APRIL 18, 2013
[ Next Day → ]
[ °C ]   °F
Weather ElementAverageHighLow
Temperature51.1 °F75.2 °F (4:00 pm)41 °F (3:15 am)
Dewpoint46.4 °F61 °F (2:00 pm)39 °F (2:00 am)
Humidity84.2 %93 % (3:15 am)57 % (5:00 pm)
Barometer29.90 in30.14 in (12:23 am)29.65 in (5:00 pm)
Wind Speed16.4 mph29.9 mph (2:00 pm)
Wind Gust40.3 mph (1:00 pm)
Weather ElementAverage
Visibility12.1 mi
Wind DirectionSE (135.7 °)

Weather ElementTotal
Precipitation---
Heating Degree Days6.9 (Base 65)
Growing Degree Days8.1 (Base 50)
Averaged from 61 records on April 18, 2013
WEATHER CONDITIONS BREAKOUT
WIND DIRECTION BREAKOUT
WEATHER BY HOUR - APRIL 18, 2013
[ °C ]   °F
Local TimeTemperatureDewpointHumidityBarometerVisibilityWind DirectionWind SpeedGust SpeedPrecipitationEventsConditions
12:23 AM42.8 °F39.2 °F87 %30.14 in5.0 miEast (80°)18.4 mph25.3 mphRain-ThunderstormLight Thunderstorms and Rain
12:33 AM42.8 °F39.2 °F87 %30.14 in10.0 miENE (70°)15.0 mph28.8 mphRainLight Rain Showers
12:51 AM42.8 °F39.2 °F87 %30.11 in10.0 miEast (90°)17.3 mphRainRain Showers
1:00 AM42.8 °F39.2 °F87 %30.13 in6.0 miEast (100°)18.4 mphRainRain Showers
1:12 AM42.8 °F39.2 °F87 %30.10 in10.0 miEast (100°)16.1 mph29.9 mphRainLight Rain Showers
1:27 AM42.8 °F39.2 °F87 %30.09 in12.0 miEast (90°)18.4 mph25.3 mphOvercast
1:56 AM42.8 °F39.2 °F87 %30.08 in10.0 miEast (100°)12.7 mph20.7 mphRainLight Rain Showers
2:00 AM42.8 °F39.2 °F87 %30.08 in10.0 miEast (100°)17.3 mphRainLight Rain Showers
2:00 AM43.0 °F39.0 °F82 %30.08 in10.0 miEast (100°)16.1 mphOvercast
2:05 AM42.8 °F39.2 °F87 %30.07 in6.0 miEast (100°)16.1 mphRainRain Showers
2:13 AM42.8 °F39.2 °F87 %30.05 in10.0 miEast (80°)18.4 mph25.3 mphRainLight Rain Showers
2:26 AM42.8 °F39.2 °F87 %30.06 in8.0 miEast (80°)15.0 mph20.7 mphRainRain Showers
2:28 AM42.8 °F39.2 °F87 %30.05 in2.5 miEast (80°)20.7 mphRainHeavy Rain Showers
2:31 AM42.8 °F39.2 °F87 %30.04 in4.0 miEast (90°)20.7 mphRainRain Showers
2:36 AM42.8 °F39.2 °F87 %30.04 in6.0 miEast (90°)21.9 mph27.6 mphRainLight Rain Showers
2:51 AM42.8 °F39.2 °F87 %30.03 in12.0 miEast (80°)20.7 mphOvercast
3:00 AM42.8 °F39.2 °F87 %30.02 in12.0 miEast (90°)20.7 mphRainLight Rain Showers
3:03 AM42.8 °F39.2 °F87 %30.02 in10.0 miEast (90°)18.4 mphRain-ThunderstormLight Thunderstorms and Rain
3:09 AM42.8 °F39.2 °F87 %30.03 in2.2 miEast (100°)18.4 mphRain-ThunderstormHeavy Thunderstorms and Rain
3:15 AM41.0 °F39.2 °F93 %30.01 in4.0 miEast (100°)20.7 mph26.5 mphRain-ThunderstormThunderstorms and Rain
3:34 AM41.0 °F39.2 °F93 %29.99 in10.0 miEast (90°)15.0 mph24.2 mphRain-ThunderstormLight Thunderstorms and Rain
3:40 AM41.0 °F39.2 °F93 %30.01 in10.0 miEast (100°)13.8 mph23.0 mphRainLight Rain Showers
3:54 AM41.0 °F39.2 °F93 %29.99 in7.0 miEast (90°)16.1 mph24.2 mphRainRain Showers
4:00 AM41.0 °F39.2 °F93 %29.99 in10.0 miEast (80°)17.3 mph24.2 mphRainLight Rain Showers
4:24 AM41.0 °F39.2 °F93 %29.96 in12.0 miEast (90°)18.4 mph25.3 mphOvercast
4:29 AM41.0 °F39.2 °F93 %29.96 in12.0 miEast (90°)18.4 mph25.3 mphThunderstormThunderstorm
4:44 AM42.8 °F39.2 °F87 %29.95 in15.0 miEast (100°)18.4 mphOvercast
5:00 AM42.8 °F39.2 °F87 %29.95 in15.0 miEast (100°)13.8 mph19.6 mphMostly Cloudy
6:00 AM42.8 °F39.2 °F87 %29.94 in15.0 miEast (80°)15.0 mphOvercast
6:25 AM42.8 °F39.2 °F87 %29.93 in15.0 miEast (90°)16.1 mphRainLight Rain Showers
6:48 AM42.8 °F39.2 °F87 %29.93 in15.0 miEast (90°)12.7 mphOvercast
6:51 AM42.8 °F39.2 °F87 %29.94 in15.0 miEast (90°)12.7 mphThunderstormThunderstorm
7:00 AM42.8 °F39.2 °F87 %29.95 in15.0 miENE (70°)6.9 mphThunderstormThunderstorm
7:16 AM42.8 °F39.2 °F87 %29.93 in15.0 miEast (90°)12.7 mphRainLight Rain Showers
7:36 AM42.8 °F41.0 °F93 %29.91 in15.0 miEast (100°)15.0 mphOvercast
8:00 AM44.0 °F42.0 °F88 %29.91 in15.0 miEast (100°)12.7 mphOvercast
8:00 AM44.6 °F41.0 °F87 %29.91 in15.0 miESE (110°)12.7 mphOvercast
8:42 AM46.4 °F44.6 °F93 %29.88 in15.0 miESE (110°)13.8 mphRainLight Rain Showers
8:53 AM48.2 °F44.6 °F87 %29.87 in15.0 miESE (110°)16.1 mphOvercast
9:00 AM48.2 °F44.6 °F87 %29.87 in15.0 miESE (120°)13.8 mphOvercast
10:00 AM55.4 °F51.8 °F88 %29.84 in15.0 miSE (140°)12.7 mphOvercast
11:00 AM64.4 °F57.2 °F77 %29.81 in15.0 miSouth (180°)20.7 mph28.8 mphOvercast
12:00 PM68.0 °F59.0 °F73 %29.77 in15.0 miSouth (190°)21.9 mph31.1 mphMostly Cloudy
1:00 PM69.8 °F60.8 °F73 %29.75 in15.0 miSSW (200°)26.5 mph40.3 mphOvercast
2:00 PM72.0 °F61.0 °F59 %29.72 in15.0 miSSW (200°)28.8 mphOvercast
2:00 PM73.4 °F60.8 °F65 %29.72 in15.0 miSSW (200°)29.9 mph36.8 mphOvercast
3:00 PM73.4 °F60.8 °F65 %29.69 in15.0 miSouth (190°)27.6 mph39.1 mphMostly Cloudy
4:00 PM75.2 °F60.8 °F61 %29.67 in15.0 miSouth (190°)21.9 mph39.1 mphMostly Cloudy
5:00 PM75.2 °F59.0 °F57 %29.65 in12.0 miSouth (190°)23.0 mph34.5 mphMostly Cloudy
6:00 PM69.8 °F60.8 °F73 %29.69 in12.0 miWest (260°)18.4 mph28.8 mphOvercast
7:00 PM68.0 °F59.0 °F73 %29.69 in15.0 miWest (260°)12.7 mph23.0 mphMostly Cloudy
7:08 PM68.0 °F59.0 °F73 %29.68 in15.0 miWSW (250°)15.0 mphRainLight Rain Showers
8:00 PM64.0 °F60.0 °F81 %29.66 in15.0 miWSW (250°)6.9 mphOvercast
8:00 PM64.4 °F59.0 °F83 %29.66 in15.0 miWSW (250°)6.9 mphRainLight Rain Showers
8:13 PM64.4 °F59.0 °F83 %29.66 in15.0 miWSW (240°)9.2 mphOvercast
9:00 PM62.6 °F59.0 °F88 %29.66 in15.0 miSW (230°)9.2 mphOvercast
9:11 PM62.6 °F59.0 °F88 %29.68 in15.0 miWSW (240°)11.5 mphRainLight Rain Showers
9:28 PM62.6 °F59.0 °F88 %29.69 in15.0 miWSW (240°)10.4 mphOvercast
10:00 PM62.6 °F59.0 °F88 %29.69 in15.0 miSW (220°)10.4 mphOvercast
10:22 PM62.6 °F59.0 °F88 %29.68 in15.0 miSW (230°)10.4 mphRainLight Rain Showers
11:00 PM62.6 °F57.2 °F82 %29.67 in15.0 miSW (220°)12.7 mphRainLight Rain Showers
Hourly data recorded from CYXU, located miles away from London, Ontario







STORIES FROM OUR PARTNERS